Skagway, AK

4:12 PM AKDT on June 22, 2017 (GMT -0800)
Skagway

Weather History for PAGY - April, 2013

Change the Weather History Date:

Wednesday, April 17, 2013

  Actual Average Record
Temperature  
Mean Temperature 38 °F -  
Max Temperature 43 °F 47 °F 66 °F (1993)
Min Temperature 32 °F 32 °F 27 °F (1967)
Degree Days  
Heating Degree Days 28    
Moisture  
Dew Point 33 °F    
Average Humidity 89    
Maximum Humidity 100    
Minimum Humidity 60    
Precipitation  
Precipitation 0.23 in - - ()
Sea Level Pressure  
Sea Level Pressure 29.98 in    
Wind  
Wind Speed 2 mph (SW)    
Max Wind Speed 23 mph    
Max Gust Speed 17 mph    
Visibility 6 miles    
Events Rain , Snow    
Averages and records for this station are not official NWS values.
T = Trace of Precipitation, MM = Missing Value Source: NWS Daily Summary

Daily Weather History Graph

Daily Weather History Graph

Search for Another Location

Airport or City:

Trip Planner

Search our weather history database for the weather conditions in past years. The results will help you decide how hot, cold, wet, or windy it might be!

Date:

Astronomy

Apr. 17, 2013 Rise Set
Actual Time 5:39 AM AKDT 8:23 PM AKDT
Civil Twilight 4:53 AM AKDT 9:10 PM AKDT
Nautical Twilight 3:51 AM AKDT 10:12 PM AKDT
Astronomical Twilight 2:23 AM AKDT 11:45 PM AKDT
Moon 10:31 AM AKDT (4/17) 2:36 AM AKDT (4/17)
Length of Visible Light 16h 16m
Length of Day
14h 44m
Waxing Crescent, 44% of the Moon is Illuminated
Apr 17
Waxing Crescent
Apr 18
First Quarter
Apr 25
Full
May 2
Last Quarter
May 9
New

Hourly Weather History & Observations

Time (AKDT) Temp. Windchill Dew Point Humidity Pressure Visibility Wind Dir Wind Speed Gust Speed Precip Events Conditions
12:23 AM 33.8 °F - 30.2 °F 87% 30.00 in 1.8 mi Calm Calm - 0.01 in Snow Light Snow
12:34 AM 33.8 °F - 30.2 °F 87% 30.00 in 2.5 mi Calm Calm - 0.01 in Snow Light Snow
12:53 AM 33.1 °F - 30.9 °F 92% 30.00 in 2.0 mi Calm Calm - 0.02 in Snow Light Snow
1:11 AM 33.8 °F - 32.0 °F 93% 29.99 in 3.0 mi Calm Calm - 0.01 in Snow Light Snow
1:22 AM 33.8 °F - 30.2 °F 87% 29.98 in 2.0 mi Calm Calm - 0.01 in Snow Light Snow
1:53 AM 33.1 °F - 32.0 °F 96% 29.98 in 2.5 mi Calm Calm - 0.03 in Snow Light Snow
2:04 AM 33.8 °F - 32.0 °F 93% 29.96 in 3.0 mi Calm Calm - 0.01 in Snow Light Snow
2:53 AM 32.0 °F - 30.9 °F 96% 29.96 in 2.5 mi Calm Calm - 0.03 in Snow Light Snow
3:08 AM 32.0 °F - 30.2 °F 93% 29.95 in 2.5 mi Calm Calm - 0.01 in Snow Light Snow
3:20 AM 32.0 °F - 30.2 °F 93% 29.94 in 3.0 mi Calm Calm - 0.02 in Snow Light Snow
3:40 AM 32.0 °F - 30.2 °F 93% 29.94 in 3.0 mi Calm Calm - 0.03 in Snow Light Snow
3:53 AM 32.0 °F - 30.9 °F 96% 29.94 in 3.0 mi Calm Calm - 0.04 in Snow Light Snow
4:53 AM 32.0 °F - 30.9 °F 96% 29.93 in 4.0 mi Calm Calm - 0.01 in Snow Light Snow
5:53 AM 33.1 °F - 30.9 °F 92% 29.92 in 7.0 mi Calm Calm - 0.02 in Snow Light Snow
6:41 AM 33.8 °F - 30.2 °F 87% 29.93 in 1.8 mi Calm Calm - 0.01 in Snow Light Snow
6:50 AM 33.8 °F - 30.2 °F 87% 29.93 in 3.0 mi Calm Calm - 0.01 in Snow Light Snow
6:53 AM 33.1 °F - 30.9 °F 92% 29.93 in 4.0 mi Calm Calm - 0.01 in Snow Light Snow
7:15 AM 33.8 °F - 30.2 °F 87% 29.93 in 6.0 mi Calm Calm - 0.00 in Snow Light Snow
7:27 AM 33.8 °F - 32.0 °F 93% 29.93 in 3.0 mi Calm Calm - 0.01 in Snow Light Snow
7:34 AM 33.8 °F - 32.0 °F 93% 29.93 in 2.5 mi Calm Calm - 0.01 in Snow Light Snow
7:53 AM 33.1 °F - 33.1 °F 100% 29.94 in 3.0 mi Calm Calm - 0.02 in Snow Light Snow
8:06 AM 33.8 °F - 33.8 °F 100% 29.94 in 3.0 mi Calm Calm - 0.00 in Snow Light Snow
8:16 AM 33.8 °F - 33.8 °F 100% 29.94 in 2.5 mi Calm Calm - 0.00 in Snow Light Snow
8:32 AM 33.8 °F - 33.8 °F 100% 29.94 in 2.0 mi Calm Calm - 0.01 in Snow Light Snow
8:40 AM 33.8 °F - 33.8 °F 100% 29.95 in 2.5 mi Calm Calm - 0.01 in Snow Light Snow
8:51 AM 33.8 °F - 33.8 °F 100% 29.94 in 2.5 mi Calm Calm - 0.01 in Snow Light Snow
8:53 AM 33.1 °F - 33.1 °F 100% 29.95 in 2.5 mi Calm Calm - 0.01 in Snow Light Snow
9:05 AM 33.8 °F - 33.8 °F 100% 29.95 in 4.0 mi Calm Calm - 0.01 in Snow Light Snow
9:53 AM 34.0 °F - 32.0 °F 92% 29.96 in 2.5 mi Calm Calm - 0.02 in Snow Light Snow
10:16 AM 33.8 °F - 33.8 °F 100% 29.97 in 3.0 mi Calm Calm - 0.00 in Snow Light Snow
10:46 AM 33.8 °F - 32.0 °F 93% 29.98 in 4.0 mi Calm Calm - 0.01 in Snow Light Snow
10:53 AM 34.0 °F - 32.0 °F 92% 29.98 in 5.0 mi Calm Calm - 0.01 in Snow Light Snow
11:53 AM 35.1 °F - 34.0 °F 96% 29.99 in 10.0 mi Calm Calm - 0.01 in   Overcast
12:01 PM 35.6 °F - 35.6 °F 100% 29.99 in 10.0 mi Calm Calm - 0.00 in   Overcast
12:51 PM 35.6 °F 32.8 °F 33.8 °F 93% 29.99 in 10.0 mi SSW 3.5 mph - 0.00 in   Overcast
12:53 PM 36.0 °F - 34.0 °F 93% 30.00 in 10.0 mi Calm Calm - 0.00 in   Overcast
1:06 PM 37.4 °F - 33.8 °F 87% 30.01 in 10.0 mi Calm Calm - 0.00 in   Overcast
1:15 PM 37.4 °F - 33.8 °F 87% 30.00 in 10.0 mi Calm Calm - 0.00 in Rain Light Rain
1:34 PM 37.4 °F 33.8 °F 33.8 °F 87% 30.01 in 10.0 mi WSW 4.6 mph - 0.00 in   Overcast
1:44 PM 37.4 °F 32.8 °F 33.8 °F 87% 30.02 in 10.0 mi WSW 5.8 mph - 0.00 in   Overcast
1:53 PM 37.0 °F 30.4 °F 35.1 °F 93% 30.02 in 10.0 mi SW 9.2 mph - 0.00 in   Overcast
2:45 PM 39.2 °F 35.9 °F 35.6 °F 87% 30.01 in 10.0 mi NW 4.6 mph - N/A   Overcast
2:53 PM 39.9 °F 36.7 °F 36.0 °F 86% 30.01 in 10.0 mi Variable 4.6 mph - N/A   Overcast
3:16 PM 41.0 °F 33.9 °F 35.6 °F 81% 30.00 in 10.0 mi South 12.7 mph 17.3 mph N/A   Overcast
3:30 PM 41.0 °F 33.9 °F 35.6 °F 81% 30.01 in 10.0 mi SSW 12.7 mph - N/A   Overcast
3:53 PM 41.0 °F 33.1 °F 36.0 °F 82% 30.01 in 10.0 mi SSW 15.0 mph - N/A   Overcast
4:53 PM 43.0 °F 33.8 °F 36.0 °F 76% 30.01 in 10.0 mi SSW 23.0 mph - N/A   Overcast
5:53 PM 43.0 °F 34.5 °F 35.1 °F 74% 30.01 in 10.0 mi SSW 19.6 mph - N/A   Overcast
6:53 PM 42.1 °F 34.5 °F 34.0 °F 73% 30.02 in 10.0 mi SSW 15.0 mph - N/A   Overcast
7:53 PM 42.1 °F 35.2 °F 33.1 °F 70% 30.03 in 10.0 mi SSW 12.7 mph - N/A   Overcast
8:53 PM 43.0 °F 37.2 °F 30.9 °F 62% 30.03 in 10.0 mi South 10.4 mph - N/A   Overcast
9:53 PM 42.1 °F 36.6 °F 28.9 °F 60% 30.04 in 10.0 mi SSW 9.2 mph - N/A   Mostly Cloudy
10:53 PM 37.9 °F 32.1 °F 30.9 °F 76% 30.05 in 10.0 mi NE 8.1 mph - N/A   Mostly Cloudy
11:53 PM 37.0 °F 31.0 °F 30.9 °F 79% 30.05 in 10.0 mi NNE 8.1 mph - N/A   Overcast